contact:dominique.lefevre@mio.osupytheas.fr, maurice.libes@osupytheas.fr, didier.mallarino@osupytheas.fr
Project:EMSO http://www.emso-fr.org/EMSO-France
Depth: 2436.0 m
Title:EMSO Ligure Ouest : Data MII capteur MICROCAT
DateTime_Computer,Latitude,Longitude,Temperature,Conductivity,Pressure,DateTime_Instrument
DateTime_Computer,Latitude,Longitude,degC,S m-1,dbar,DateTime_Instrument
2019-11-15T00:01:17Z,42.805,6.029,13.3004,4.59996,2469.97,2019-11-15T02:01:44Z
2019-11-15T00:04:20Z,42.805,6.029,13.2988,4.59993,2469.937,2019-11-15T02:04:48Z
2019-11-15T00:07:23Z,42.805,6.029,13.3004,4.59977,2469.947,2019-11-15T02:07:51Z
2019-11-15T00:10:26Z,42.805,6.029,13.2989,4.59989,2469.96,2019-11-15T02:10:54Z
2019-11-15T00:13:30Z,42.805,6.029,13.2984,4.59976,2469.9,2019-11-15T02:13:57Z
2019-11-15T00:16:33Z,42.805,6.029,13.2988,4.59984,2469.947,2019-11-15T02:17:00Z
2019-11-15T00:19:36Z,42.805,6.029,13.2983,4.59981,2469.9,2019-11-15T02:20:04Z
2019-11-15T00:22:39Z,42.805,6.029,13.2984,4.59982,2469.923,2019-11-15T02:23:07Z
2019-11-15T00:25:43Z,42.805,6.029,13.2989,4.59981,2469.96,2019-11-15T02:26:10Z
2019-11-15T00:28:46Z,42.805,6.029,13.2994,4.59984,2469.97,2019-11-15T02:29:14Z
2019-11-15T00:31:50Z,42.805,6.029,13.2995,4.59982,2469.937,2019-11-15T02:32:17Z
2019-11-15T00:34:53Z,42.805,6.029,13.2995,4.59981,2469.923,2019-11-15T02:35:21Z
2019-11-15T00:37:56Z,42.805,6.029,13.2999,4.59985,2469.96,2019-11-15T02:38:24Z
2019-11-15T00:40:59Z,42.805,6.029,13.2983,4.59997,2469.923,2019-11-15T02:41:27Z
2019-11-15T00:44:02Z,42.805,6.029,13.2996,4.59986,2469.947,2019-11-15T02:44:30Z
2019-11-15T00:47:06Z,42.805,6.029,13.2995,4.59986,2469.937,2019-11-15T02:47:33Z
2019-11-15T00:50:09Z,42.805,6.029,13.2982,4.59976,2469.96,2019-11-15T02:50:37Z
2019-11-15T00:53:12Z,42.805,6.029,13.2984,4.59980,2469.937,2019-11-15T02:53:40Z
2019-11-15T00:56:15Z,42.805,6.029,13.2993,4.59976,2469.923,2019-11-15T02:56:43Z
2019-11-15T00:59:19Z,42.805,6.029,13.2990,4.59968,2469.947,2019-11-15T02:59:46Z
2019-11-15T01:02:22Z,42.805,6.029,13.2982,4.59982,2469.914,2019-11-15T03:02:50Z
2019-11-15T01:05:25Z,42.805,6.029,13.3001,4.59983,2469.9,2019-11-15T03:05:53Z
2019-11-15T01:08:28Z,42.805,6.029,13.2982,4.59981,2469.96,2019-11-15T03:08:56Z
2019-11-15T01:11:31Z,42.805,6.029,13.2985,4.59982,2469.96,2019-11-15T03:11:59Z
2019-11-15T01:14:35Z,42.805,6.029,13.2989,4.59976,2469.914,2019-11-15T03:15:02Z
2019-11-15T01:17:38Z,42.805,6.029,13.2986,4.59981,2469.914,2019-11-15T03:18:06Z
2019-11-15T01:20:41Z,42.805,6.029,13.2984,4.59984,2469.914,2019-11-15T03:21:09Z
2019-11-15T01:23:44Z,42.805,6.029,13.2985,4.59982,2469.923,2019-11-15T03:24:12Z
2019-11-15T01:26:48Z,42.805,6.029,13.2988,4.59983,2469.937,2019-11-15T03:27:16Z
2019-11-15T01:29:51Z,42.805,6.029,13.3002,4.59980,2469.947,2019-11-15T03:30:19Z
2019-11-15T01:32:54Z,42.805,6.029,13.2982,4.59990,2469.937,2019-11-15T03:33:22Z
2019-11-15T01:35:58Z,42.805,6.029,13.2986,4.59993,2469.9,2019-11-15T03:36:25Z
2019-11-15T01:39:01Z,42.805,6.029,13.2998,4.59978,2469.89,2019-11-15T03:39:29Z
2019-11-15T01:42:04Z,42.805,6.029,13.2990,4.59993,2469.9,2019-11-15T03:42:32Z
2019-11-15T01:45:08Z,42.805,6.029,13.2981,4.59978,2469.923,2019-11-15T03:45:35Z
2019-11-15T01:48:11Z,42.805,6.029,13.2986,4.59979,2469.9,2019-11-15T03:48:39Z
2019-11-15T01:51:14Z,42.805,6.029,13.2983,4.59987,2469.914,2019-11-15T03:51:42Z
2019-11-15T01:54:17Z,42.805,6.029,13.3006,4.59979,2469.876,2019-11-15T03:54:45Z
2019-11-15T01:57:20Z,42.805,6.029,13.2982,4.59986,2469.923,2019-11-15T03:57:48Z
2019-11-15T02:00:24Z,42.805,6.029,13.2996,4.59980,2469.89,2019-11-15T04:00:51Z
2019-11-15T02:03:27Z,42.805,6.029,13.2990,4.59987,2469.876,2019-11-15T04:03:55Z
2019-11-15T02:06:30Z,42.805,6.029,13.2987,4.59995,2469.96,2019-11-15T04:06:58Z
2019-11-15T02:09:33Z,42.805,6.029,13.2991,4.59981,2469.9,2019-11-15T04:10:01Z
2019-11-15T02:12:36Z,42.805,6.029,13.2990,4.59984,2469.914,2019-11-15T04:13:04Z
2019-11-15T02:15:40Z,42.805,6.029,13.2986,4.59982,2469.89,2019-11-15T04:16:07Z
2019-11-15T02:18:43Z,42.805,6.029,13.2995,4.59984,2469.923,2019-11-15T04:19:11Z
2019-11-15T02:21:46Z,42.805,6.029,13.2993,4.59976,2469.937,2019-11-15T04:22:14Z
2019-11-15T02:24:49Z,42.805,6.029,13.2993,4.59991,2469.923,2019-11-15T04:25:17Z
2019-11-15T02:27:53Z,42.805,6.029,13.2988,4.60008,2469.914,2019-11-15T04:28:20Z
2019-11-15T02:30:56Z,42.805,6.029,13.2979,4.59981,2469.9,2019-11-15T04:31:23Z
2019-11-15T02:33:59Z,42.805,6.029,13.2980,4.60007,2469.923,2019-11-15T04:34:27Z
2019-11-15T02:37:02Z,42.805,6.029,13.2990,4.60010,2469.876,2019-11-15T04:37:30Z
2019-11-15T02:40:05Z,42.805,6.029,13.2980,4.59990,2469.914,2019-11-15T04:40:33Z
2019-11-15T02:43:09Z,42.805,6.029,13.2993,4.59988,2469.914,2019-11-15T04:43:36Z
2019-11-15T02:46:12Z,42.805,6.029,13.2987,4.59991,2469.89,2019-11-15T04:46:40Z
2019-11-15T02:49:15Z,42.805,6.029,13.2998,4.60011,2469.937,2019-11-15T04:49:43Z
2019-11-15T02:52:18Z,42.805,6.029,13.2974,4.60004,2469.9,2019-11-15T04:52:46Z
2019-11-15T02:55:22Z,42.805,6.029,13.3009,4.59985,2469.923,2019-11-15T04:55:49Z
2019-11-15T02:58:25Z,42.805,6.029,13.2981,4.59991,2469.914,2019-11-15T04:58:53Z
2019-11-15T03:01:28Z,42.805,6.029,13.2997,4.59999,2469.9,2019-11-15T05:01:56Z
2019-11-15T03:04:31Z,42.805,6.029,13.2987,4.59986,2469.9,2019-11-15T05:04:59Z
2019-11-15T03:07:34Z,42.805,6.029,13.2961,4.59999,2469.923,2019-11-15T05:08:02Z
2019-11-15T03:10:38Z,42.805,6.029,13.2975,4.60009,2469.937,2019-11-15T05:11:06Z
2019-11-15T03:13:41Z,42.805,6.029,13.2970,4.60024,2469.914,2019-11-15T05:14:09Z
2019-11-15T03:16:44Z,42.805,6.029,13.2969,4.59986,2469.876,2019-11-15T05:17:12Z
2019-11-15T03:19:48Z,42.805,6.029,13.2975,4.59997,2469.937,2019-11-15T05:20:15Z
2019-11-15T03:22:51Z,42.805,6.029,13.2970,4.59999,2469.89,2019-11-15T05:23:19Z
2019-11-15T03:25:54Z,42.805,6.029,13.2968,4.59999,2469.96,2019-11-15T05:26:22Z
2019-11-15T03:28:57Z,42.805,6.029,13.2974,4.59995,2469.9,2019-11-15T05:29:25Z
2019-11-15T03:32:00Z,42.805,6.029,13.2968,4.59988,2469.937,2019-11-15T05:32:28Z
2019-11-15T03:35:04Z,42.805,6.029,13.2967,4.59976,2469.9,2019-11-15T05:35:31Z
2019-11-15T03:38:07Z,42.805,6.029,13.2965,4.59983,2469.914,2019-11-15T05:38:35Z
2019-11-15T03:41:10Z,42.805,6.029,13.2964,4.59973,2469.914,2019-11-15T05:41:38Z
2019-11-15T03:44:13Z,42.805,6.029,13.2963,4.59981,2469.914,2019-11-15T05:44:41Z
2019-11-15T03:47:17Z,42.805,6.029,13.2962,4.59974,2469.947,2019-11-15T05:47:44Z
2019-11-15T03:50:20Z,42.805,6.029,13.2964,4.59969,2469.914,2019-11-15T05:50:48Z
2019-11-15T03:53:23Z,42.805,6.029,13.2963,4.59977,2469.947,2019-11-15T05:53:51Z
2019-11-15T03:56:27Z,42.805,6.029,13.2961,4.59975,2469.9,2019-11-15T05:56:54Z
2019-11-15T03:59:30Z,42.805,6.029,13.2958,4.59968,2469.9,2019-11-15T05:59:58Z
2019-11-15T04:02:33Z,42.805,6.029,13.2960,4.59971,2469.937,2019-11-15T06:03:01Z
2019-11-15T04:05:36Z,42.805,6.029,13.2960,4.59968,2469.947,2019-11-15T06:06:04Z
2019-11-15T04:08:40Z,42.805,6.029,13.2964,4.59970,2469.923,2019-11-15T06:09:07Z
2019-11-15T04:11:43Z,42.805,6.029,13.2959,4.59966,2469.923,2019-11-15T06:12:11Z
2019-11-15T04:14:46Z,42.805,6.029,13.2962,4.59969,2469.876,2019-11-15T06:15:14Z
2019-11-15T04:17:49Z,42.805,6.029,13.2958,4.59966,2469.96,2019-11-15T06:18:17Z
2019-11-15T04:20:52Z,42.805,6.029,13.2959,4.59965,2469.937,2019-11-15T06:21:20Z
2019-11-15T04:23:56Z,42.805,6.029,13.2963,4.59971,2469.96,2019-11-15T06:24:23Z
2019-11-15T04:26:59Z,42.805,6.029,13.2961,4.59973,2469.947,2019-11-15T06:27:27Z
2019-11-15T04:30:02Z,42.805,6.029,13.2962,4.59964,2469.96,2019-11-15T06:30:30Z
2019-11-15T04:33:06Z,42.805,6.029,13.2962,4.59965,2469.96,2019-11-15T06:33:33Z
2019-11-15T04:36:09Z,42.805,6.029,13.2960,4.59964,2469.96,2019-11-15T06:36:37Z
2019-11-15T04:39:12Z,42.805,6.029,13.2959,4.59965,2469.96,2019-11-15T06:39:40Z
2019-11-15T04:42:15Z,42.805,6.029,13.2960,4.59966,2469.947,2019-11-15T06:42:43Z
2019-11-15T04:45:18Z,42.805,6.029,13.2960,4.59964,2469.956,2019-11-15T06:45:46Z
2019-11-15T04:48:22Z,42.805,6.029,13.2961,4.59966,2469.96,2019-11-15T06:48:49Z
2019-11-15T04:51:25Z,42.805,6.029,13.2959,4.59964,2469.947,2019-11-15T06:51:53Z
2019-11-15T04:54:28Z,42.805,6.029,13.2961,4.59964,2469.97,2019-11-15T06:54:56Z
2019-11-15T04:57:31Z,42.805,6.029,13.2963,4.59964,2469.97,2019-11-15T06:57:59Z
2019-11-15T05:00:35Z,42.805,6.029,13.2960,4.59964,2469.984,2019-11-15T07:01:02Z
2019-11-15T05:03:38Z,42.805,6.029,13.2962,4.59968,2469.993,2019-11-15T07:04:06Z
2019-11-15T05:06:41Z,42.805,6.029,13.2962,4.59968,2469.947,2019-11-15T07:07:09Z
2019-11-15T05:09:44Z,42.805,6.029,13.2964,4.59964,2469.993,2019-11-15T07:10:12Z
2019-11-15T05:12:47Z,42.805,6.029,13.2956,4.59966,2469.947,2019-11-15T07:13:15Z
2019-11-15T05:15:51Z,42.805,6.029,13.2960,4.59964,2469.984,2019-11-15T07:16:18Z
2019-11-15T05:18:54Z,42.805,6.029,13.2960,4.59966,2470.017,2019-11-15T07:19:22Z
2019-11-15T05:21:57Z,42.805,6.029,13.2961,4.59964,2469.993,2019-11-15T07:22:25Z
2019-11-15T05:25:00Z,42.805,6.029,13.2962,4.59966,2469.993,2019-11-15T07:25:28Z
2019-11-15T05:28:04Z,42.805,6.029,13.2961,4.59967,2470.007,2019-11-15T07:28:31Z
2019-11-15T05:31:07Z,42.805,6.029,13.2961,4.59966,2470.007,2019-11-15T07:31:35Z
2019-11-15T05:34:10Z,42.805,6.029,13.2964,4.59966,2470.03,2019-11-15T07:34:38Z
2019-11-15T05:37:13Z,42.805,6.029,13.2960,4.59963,2470.03,2019-11-15T07:37:41Z
2019-11-15T05:40:16Z,42.805,6.029,13.2961,4.59963,2470.04,2019-11-15T07:40:44Z
2019-11-15T05:43:20Z,42.805,6.029,13.2960,4.59964,2470.03,2019-11-15T07:43:47Z
2019-11-15T05:46:23Z,42.805,6.029,13.2962,4.59962,2470.017,2019-11-15T07:46:51Z
2019-11-15T05:49:26Z,42.805,6.029,13.2962,4.59963,2470.017,2019-11-15T07:49:54Z
2019-11-15T05:52:30Z,42.805,6.029,13.2960,4.59963,2470.04,2019-11-15T07:52:57Z
2019-11-15T05:55:33Z,42.805,6.029,13.2960,4.59969,2469.993,2019-11-15T07:56:00Z
2019-11-15T05:58:36Z,42.805,6.029,13.2958,4.59964,2470.053,2019-11-15T07:59:04Z
2019-11-15T06:01:39Z,42.805,6.029,13.2958,4.59963,2470.077,2019-11-15T08:02:07Z
2019-11-15T06:04:42Z,42.805,6.029,13.2957,4.59963,2470.04,2019-11-15T08:05:10Z
2019-11-15T06:07:46Z,42.805,6.029,13.2959,4.59964,2470.077,2019-11-15T08:08:13Z
2019-11-15T06:10:49Z,42.805,6.029,13.2958,4.59963,2470.04,2019-11-15T08:11:17Z
2019-11-15T06:13:52Z,42.805,6.029,13.2963,4.59963,2470.053,2019-11-15T08:14:20Z
2019-11-15T06:16:55Z,42.805,6.029,13.2957,4.59963,2470.04,2019-11-15T08:17:23Z
2019-11-15T06:19:58Z,42.805,6.029,13.2959,4.59966,2470.063,2019-11-15T08:20:26Z
2019-11-15T06:23:02Z,42.805,6.029,13.2959,4.59964,2470.1,2019-11-15T08:23:29Z
2019-11-15T06:26:05Z,42.805,6.029,13.2958,4.59964,2470.077,2019-11-15T08:26:33Z
2019-11-15T06:29:09Z,42.805,6.029,13.2964,4.59964,2470.04,2019-11-15T08:29:36Z
2019-11-15T06:32:12Z,42.805,6.029,13.2963,4.59968,2470.063,2019-11-15T08:32:40Z
2019-11-15T06:35:15Z,42.805,6.029,13.2961,4.59968,2470.124,2019-11-15T08:35:43Z
2019-11-15T06:38:18Z,42.805,6.029,13.2963,4.59966,2470.11,2019-11-15T08:38:46Z
2019-11-15T06:41:22Z,42.805,6.029,13.2958,4.59967,2470.063,2019-11-15T08:41:49Z
2019-11-15T06:44:25Z,42.805,6.029,13.2964,4.59964,2470.1,2019-11-15T08:44:53Z
2019-11-15T06:47:28Z,42.805,6.029,13.2960,4.59964,2470.087,2019-11-15T08:47:56Z
2019-11-15T06:50:31Z,42.805,6.029,13.2961,4.59966,2470.087,2019-11-15T08:50:59Z
2019-11-15T06:53:34Z,42.805,6.029,13.2959,4.59966,2470.087,2019-11-15T08:54:02Z
2019-11-15T06:56:38Z,42.805,6.029,13.2964,4.59968,2470.124,2019-11-15T08:57:05Z
2019-11-15T06:59:41Z,42.805,6.029,13.2964,4.59966,2470.087,2019-11-15T09:00:09Z
2019-11-15T07:02:44Z,42.805,6.029,13.2962,4.59970,2470.077,2019-11-15T09:03:12Z
2019-11-15T07:05:47Z,42.805,6.029,13.2956,4.59967,2470.1,2019-11-15T09:06:15Z
2019-11-15T07:08:51Z,42.805,6.029,13.2959,4.59966,2470.147,2019-11-15T09:09:18Z
2019-11-15T07:11:54Z,42.805,6.029,13.2964,4.59968,2470.11,2019-11-15T09:12:21Z
2019-11-15T07:14:57Z,42.805,6.029,13.2962,4.59969,2470.11,2019-11-15T09:15:25Z
2019-11-15T07:18:00Z,42.805,6.029,13.2959,4.59966,2470.11,2019-11-15T09:18:28Z
2019-11-15T07:21:04Z,42.805,6.029,13.2961,4.59968,2470.156,2019-11-15T09:21:31Z
2019-11-15T07:24:07Z,42.805,6.029,13.2959,4.59971,2470.147,2019-11-15T09:24:35Z
2019-11-15T07:27:10Z,42.805,6.029,13.2961,4.59970,2470.11,2019-11-15T09:27:38Z
2019-11-15T07:30:13Z,42.805,6.029,13.2961,4.59964,2470.133,2019-11-15T09:30:41Z
2019-11-15T07:33:17Z,42.805,6.029,13.2962,4.59966,2470.147,2019-11-15T09:33:44Z
2019-11-15T07:36:20Z,42.805,6.029,13.2961,4.59962,2470.124,2019-11-15T09:36:47Z
2019-11-15T07:39:23Z,42.805,6.029,13.2964,4.59964,2470.124,2019-11-15T09:39:51Z
2019-11-15T07:42:26Z,42.805,6.029,13.2962,4.59967,2470.203,2019-11-15T09:42:54Z
2019-11-15T07:45:29Z,42.805,6.029,13.2960,4.59972,2470.133,2019-11-15T09:45:57Z
2019-11-15T07:48:33Z,42.805,6.029,13.2959,4.59967,2470.087,2019-11-15T09:49:00Z
2019-11-15T07:51:36Z,42.805,6.029,13.2959,4.59968,2470.133,2019-11-15T09:52:04Z
2019-11-15T07:54:39Z,42.805,6.029,13.2962,4.59968,2470.147,2019-11-15T09:55:07Z
2019-11-15T07:57:42Z,42.805,6.029,13.2962,4.59964,2470.138,2019-11-15T09:58:10Z
2019-11-15T08:00:45Z,42.805,6.029,13.2964,4.59971,2470.147,2019-11-15T10:01:13Z
2019-11-15T08:03:49Z,42.805,6.029,13.2964,4.59968,2470.18,2019-11-15T10:04:16Z
2019-11-15T08:06:52Z,42.805,6.029,13.2960,4.59968,2470.133,2019-11-15T10:07:20Z
2019-11-15T08:09:56Z,42.805,6.029,13.2958,4.59965,2470.156,2019-11-15T10:10:23Z
2019-11-15T08:12:59Z,42.805,6.029,13.2959,4.59968,2470.156,2019-11-15T10:13:27Z
2019-11-15T08:16:02Z,42.805,6.029,13.2962,4.59973,2470.147,2019-11-15T10:16:30Z
2019-11-15T08:19:05Z,42.805,6.029,13.2967,4.59966,2470.194,2019-11-15T10:19:33Z
2019-11-15T08:22:08Z,42.805,6.029,13.2964,4.59967,2470.156,2019-11-15T10:22:36Z
2019-11-15T08:25:12Z,42.805,6.029,13.2958,4.59966,2470.124,2019-11-15T10:25:39Z
2019-11-15T08:28:15Z,42.805,6.029,13.2961,4.59966,2470.194,2019-11-15T10:28:43Z
2019-11-15T08:31:18Z,42.805,6.029,13.2964,4.59973,2470.133,2019-11-15T10:31:46Z
2019-11-15T08:34:22Z,42.805,6.029,13.2960,4.59966,2470.133,2019-11-15T10:34:49Z
2019-11-15T08:37:25Z,42.805,6.029,13.2962,4.59970,2470.11,2019-11-15T10:37:53Z
2019-11-15T08:40:28Z,42.805,6.029,13.2964,4.59973,2470.171,2019-11-15T10:40:56Z
2019-11-15T08:43:31Z,42.805,6.029,13.2961,4.59966,2470.147,2019-11-15T10:43:59Z
2019-11-15T08:46:35Z,42.805,6.029,13.2959,4.59963,2470.171,2019-11-15T10:47:02Z
2019-11-15T08:49:38Z,42.805,6.029,13.2961,4.59970,2470.147,2019-11-15T10:50:06Z
2019-11-15T08:52:41Z,42.805,6.029,13.2961,4.59967,2470.171,2019-11-15T10:53:09Z
2019-11-15T08:55:44Z,42.805,6.029,13.2959,4.59974,2470.194,2019-11-15T10:56:12Z
2019-11-15T08:58:48Z,42.805,6.029,13.2961,4.59973,2470.171,2019-11-15T10:59:15Z
2019-11-15T09:01:51Z,42.805,6.029,13.2967,4.59966,2470.156,2019-11-15T11:02:18Z
2019-11-15T09:04:54Z,42.805,6.029,13.2962,4.59968,2470.147,2019-11-15T11:05:22Z
2019-11-15T09:07:57Z,42.805,6.029,13.2961,4.59966,2470.156,2019-11-15T11:08:25Z
2019-11-15T09:11:00Z,42.805,6.029,13.2961,4.59973,2470.133,2019-11-15T11:11:28Z
2019-11-15T09:14:04Z,42.805,6.029,13.2963,4.59966,2470.133,2019-11-15T11:14:31Z
2019-11-15T09:17:07Z,42.805,6.029,13.2958,4.59968,2470.156,2019-11-15T11:17:35Z
2019-11-15T09:20:10Z,42.805,6.029,13.2963,4.59968,2470.171,2019-11-15T11:20:38Z
2019-11-15T09:23:14Z,42.805,6.029,13.2962,4.59968,2470.156,2019-11-15T11:23:41Z
2019-11-15T09:26:17Z,42.805,6.029,13.2963,4.59964,2470.18,2019-11-15T11:26:45Z
2019-11-15T09:29:20Z,42.805,6.029,13.2961,4.59967,2470.171,2019-11-15T11:29:48Z
2019-11-15T09:32:23Z,42.805,6.029,13.2964,4.59965,2470.194,2019-11-15T11:32:51Z
2019-11-15T09:35:27Z,42.805,6.029,13.2964,4.59970,2470.156,2019-11-15T11:35:54Z
2019-11-15T09:38:30Z,42.805,6.029,13.2963,4.59965,2470.124,2019-11-15T11:38:58Z
2019-11-15T09:41:33Z,42.805,6.029,13.2962,4.59970,2470.156,2019-11-15T11:42:01Z
2019-11-15T09:44:36Z,42.805,6.029,13.2964,4.59964,2470.133,2019-11-15T11:45:04Z
2019-11-15T09:47:39Z,42.805,6.029,13.2960,4.59964,2470.147,2019-11-15T11:48:07Z
2019-11-15T09:50:43Z,42.805,6.029,13.2960,4.59966,2470.171,2019-11-15T11:51:11Z
2019-11-15T09:53:46Z,42.805,6.029,13.2961,4.59964,2470.147,2019-11-15T11:54:14Z
2019-11-15T09:56:49Z,42.805,6.029,13.2964,4.59965,2470.147,2019-11-15T11:57:17Z
2019-11-15T09:59:53Z,42.805,6.029,13.2964,4.59968,2470.156,2019-11-15T12:00:20Z
2019-11-15T10:02:56Z,42.805,6.029,13.2963,4.59971,2470.194,2019-11-15T12:03:23Z
2019-11-15T10:05:59Z,42.805,6.029,13.2967,4.59986,2470.147,2019-11-15T12:06:27Z
2019-11-15T10:09:02Z,42.805,6.029,13.2965,4.59985,2470.171,2019-11-15T12:09:30Z
2019-11-15T10:12:06Z,42.805,6.029,13.2965,4.60003,2470.171,2019-11-15T12:12:33Z
2019-11-15T10:15:09Z,42.805,6.029,13.2963,4.59966,2470.171,2019-11-15T12:15:37Z
2019-11-15T10:18:12Z,42.805,6.029,13.2964,4.59972,2470.096,2019-11-15T12:18:40Z
2019-11-15T10:21:15Z,42.805,6.029,13.2970,4.59992,2470.171,2019-11-15T12:21:43Z
2019-11-15T10:24:19Z,42.805,6.029,13.2969,4.59968,2470.147,2019-11-15T12:24:46Z
2019-11-15T10:27:22Z,42.805,6.029,13.2964,4.59968,2470.147,2019-11-15T12:27:50Z
2019-11-15T10:30:25Z,42.805,6.029,13.2960,4.59976,2470.171,2019-11-15T12:30:53Z
2019-11-15T10:33:28Z,42.805,6.029,13.2960,4.59967,2470.171,2019-11-15T12:33:56Z
2019-11-15T10:36:31Z,42.805,6.029,13.2961,4.59988,2470.133,2019-11-15T12:36:59Z
2019-11-15T10:39:35Z,42.805,6.029,13.2960,4.59988,2470.147,2019-11-15T12:40:02Z
2019-11-15T10:42:38Z,42.805,6.029,13.2961,4.59976,2470.11,2019-11-15T12:43:06Z
2019-11-15T10:45:41Z,42.805,6.029,13.2959,4.60003,2470.124,2019-11-15T12:46:09Z
2019-11-15T10:48:44Z,42.805,6.029,13.2967,4.59994,2470.096,2019-11-15T12:49:12Z
2019-11-15T10:51:48Z,42.805,6.029,13.2962,4.59975,2470.1,2019-11-15T12:52:15Z
2019-11-15T10:54:51Z,42.805,6.029,13.2986,4.59985,2470.087,2019-11-15T12:55:19Z
2019-11-15T10:57:54Z,42.805,6.029,13.2981,4.60003,2470.11,2019-11-15T12:58:22Z
2019-11-15T11:00:57Z,42.805,6.029,13.2971,4.59995,2470.087,2019-11-15T13:01:25Z
2019-11-15T11:04:01Z,42.805,6.029,13.2966,4.60009,2470.11,2019-11-15T13:04:28Z
2019-11-15T11:07:04Z,42.805,6.029,13.2962,4.59992,2470.087,2019-11-15T13:07:32Z
2019-11-15T11:10:07Z,42.805,6.029,13.2970,4.59991,2470.11,2019-11-15T13:10:35Z
2019-11-15T11:13:10Z,42.805,6.029,13.2980,4.59983,2470.063,2019-11-15T13:13:38Z
2019-11-15T11:16:14Z,42.805,6.029,13.2967,4.59985,2470.1,2019-11-15T13:16:42Z
2019-11-15T11:19:17Z,42.805,6.029,13.2959,4.59996,2470.1,2019-11-15T13:19:45Z
2019-11-15T11:22:20Z,42.805,6.029,13.2979,4.59984,2470.1,2019-11-15T13:22:48Z
2019-11-15T11:25:24Z,42.805,6.029,13.3022,4.59986,2470.124,2019-11-15T13:25:51Z
2019-11-15T11:28:27Z,42.805,6.029,13.2973,4.59979,2470.077,2019-11-15T13:28:55Z
2019-11-15T11:31:30Z,42.805,6.029,13.2979,4.59975,2470.1,2019-11-15T13:31:58Z
2019-11-15T11:34:33Z,42.805,6.029,13.2994,4.59976,2470.077,2019-11-15T13:35:01Z
2019-11-15T11:37:37Z,42.805,6.029,13.2995,4.59983,2470.087,2019-11-15T13:38:04Z
2019-11-15T11:40:40Z,42.805,6.029,13.2990,4.60039,2470.04,2019-11-15T13:41:08Z
2019-11-15T11:43:43Z,42.805,6.029,13.3011,4.60042,2470.063,2019-11-15T13:44:11Z
2019-11-15T11:46:46Z,42.805,6.029,13.3015,4.60006,2470.077,2019-11-15T13:47:14Z
2019-11-15T11:49:49Z,42.805,6.029,13.3015,4.60036,2470.077,2019-11-15T13:50:17Z
2019-11-15T11:52:53Z,42.805,6.029,13.3024,4.60043,2470.077,2019-11-15T13:53:20Z
2019-11-15T11:55:56Z,42.805,6.029,13.3034,4.59991,2470.063,2019-11-15T13:56:24Z
2019-11-15T11:58:59Z,42.805,6.029,13.3046,4.59993,2470.03,2019-11-15T13:59:27Z
2019-11-15T12:02:02Z,42.805,6.029,13.3031,4.60009,2470.053,2019-11-15T14:02:30Z
2019-11-15T12:05:06Z,42.805,6.029,13.3016,4.60043,2470.077,2019-11-15T14:05:33Z
2019-11-15T12:08:09Z,42.805,6.029,13.3015,4.60040,2470.053,2019-11-15T14:08:37Z
2019-11-15T12:11:12Z,42.805,6.029,13.3014,4.60051,2470.077,2019-11-15T14:11:40Z
2019-11-15T12:14:15Z,42.805,6.029,13.3026,4.60035,2470.007,2019-11-15T14:14:43Z
2019-11-15T12:17:18Z,42.805,6.029,13.3000,4.60035,2470.04,2019-11-15T14:17:46Z
2019-11-15T12:20:22Z,42.805,6.029,13.3019,4.59991,2470.053,2019-11-15T14:20:50Z
2019-11-15T12:23:25Z,42.805,6.029,13.2997,4.59992,2470.03,2019-11-15T14:23:53Z
2019-11-15T12:26:28Z,42.805,6.029,13.2995,4.60011,2470.04,2019-11-15T14:26:56Z
2019-11-15T12:29:32Z,42.805,6.029,13.2997,4.60026,2470.03,2019-11-15T14:29:59Z
2019-11-15T12:32:35Z,42.805,6.029,13.3031,4.60001,2470.053,2019-11-15T14:33:03Z
2019-11-15T12:35:38Z,42.805,6.029,13.2996,4.60002,2470.053,2019-11-15T14:36:06Z
2019-11-15T12:38:41Z,42.805,6.029,13.2985,4.60028,2470.053,2019-11-15T14:39:09Z
2019-11-15T12:41:45Z,42.805,6.029,13.2991,4.60091,2470.04,2019-11-15T14:42:12Z
2019-11-15T12:44:48Z,42.805,6.029,13.2996,4.60001,2470.077,2019-11-15T14:45:16Z
2019-11-15T12:47:51Z,42.805,6.029,13.2982,4.60009,2470.04,2019-11-15T14:48:19Z
2019-11-15T12:50:54Z,42.805,6.029,13.2998,4.60005,2469.993,2019-11-15T14:51:22Z
2019-11-15T12:53:57Z,42.805,6.029,13.2979,4.60034,2470.03,2019-11-15T14:54:25Z
2019-11-15T12:57:01Z,42.805,6.029,13.3000,4.60069,2470.04,2019-11-15T14:57:28Z
2019-11-15T13:00:04Z,42.805,6.029,13.3011,4.60018,2470.03,2019-11-15T15:00:32Z
2019-11-15T13:03:07Z,42.805,6.029,13.2992,4.60032,2470.03,2019-11-15T15:03:35Z
2019-11-15T13:06:10Z,42.805,6.029,13.3000,4.60055,2470.053,2019-11-15T15:06:38Z
2019-11-15T13:09:14Z,42.805,6.029,13.2989,4.60080,2469.993,2019-11-15T15:09:41Z
2019-11-15T13:12:17Z,42.805,6.029,13.3002,4.60067,2470.017,2019-11-15T15:12:45Z
2019-11-15T13:15:20Z,42.805,6.029,13.3003,4.60062,2470.053,2019-11-15T15:15:48Z
2019-11-15T13:18:23Z,42.805,6.029,13.2992,4.60059,2470.03,2019-11-15T15:18:51Z
2019-11-15T13:21:27Z,42.805,6.029,13.3015,4.60023,2470.007,2019-11-15T15:21:54Z
2019-11-15T13:24:30Z,42.805,6.029,13.2998,4.60039,2470.03,2019-11-15T15:24:58Z
2019-11-15T13:27:33Z,42.805,6.029,13.3009,4.60014,2470.007,2019-11-15T15:28:01Z
2019-11-15T13:30:36Z,42.805,6.029,13.2982,4.60031,2470.007,2019-11-15T15:31:04Z
2019-11-15T13:33:40Z,42.805,6.029,13.3007,4.60046,2470.053,2019-11-15T15:34:07Z
2019-11-15T13:36:43Z,42.805,6.029,13.3026,4.60013,2469.993,2019-11-15T15:37:11Z
2019-11-15T13:39:46Z,42.805,6.029,13.3052,4.60058,2470.03,2019-11-15T15:40:14Z
2019-11-15T13:42:49Z,42.805,6.029,13.3056,4.60030,2469.97,2019-11-15T15:43:17Z
2019-11-15T13:45:53Z,42.805,6.029,13.3042,4.60019,2469.984,2019-11-15T15:46:20Z
2019-11-15T13:48:56Z,42.805,6.029,13.3015,4.60024,2470.04,2019-11-15T15:49:24Z
2019-11-15T13:51:59Z,42.805,6.029,13.3011,4.60058,2470.03,2019-11-15T15:52:27Z
2019-11-15T13:55:02Z,42.805,6.029,13.3009,4.60069,2470.007,2019-11-15T15:55:30Z
2019-11-15T13:58:06Z,42.805,6.029,13.3012,4.60031,2470.03,2019-11-15T15:58:33Z
2019-11-15T14:01:09Z,42.805,6.029,13.3011,4.60044,2470.007,2019-11-15T16:01:37Z
2019-11-15T14:04:12Z,42.805,6.029,13.2985,4.60040,2469.984,2019-11-15T16:04:40Z
2019-11-15T14:07:15Z,42.805,6.029,13.3007,4.60040,2469.984,2019-11-15T16:07:43Z
2019-11-15T14:10:18Z,42.805,6.029,13.2998,4.60058,2469.984,2019-11-15T16:10:46Z
2019-11-15T14:13:22Z,42.805,6.029,13.2981,4.60044,2470.007,2019-11-15T16:13:49Z
2019-11-15T14:16:25Z,42.805,6.029,13.3002,4.60051,2469.984,2019-11-15T16:16:53Z
2019-11-15T14:19:28Z,42.805,6.029,13.3006,4.60064,2469.993,2019-11-15T16:19:56Z
2019-11-15T14:22:32Z,42.805,6.029,13.2998,4.60033,2469.993,2019-11-15T16:22:59Z
2019-11-15T14:25:35Z,42.805,6.029,13.3004,4.60014,2469.993,2019-11-15T16:26:03Z
2019-11-15T14:28:38Z,42.805,6.029,13.3007,4.59996,2469.984,2019-11-15T16:29:06Z
2019-11-15T14:31:41Z,42.805,6.029,13.3011,4.60018,2470.007,2019-11-15T16:32:09Z
2019-11-15T14:34:45Z,42.805,6.029,13.3023,4.60062,2469.993,2019-11-15T16:35:12Z
2019-11-15T14:37:48Z,42.805,6.029,13.3014,4.60044,2469.947,2019-11-15T16:38:16Z
2019-11-15T14:40:51Z,42.805,6.029,13.3007,4.60064,2469.993,2019-11-15T16:41:19Z
2019-11-15T14:43:54Z,42.805,6.029,13.3027,4.60014,2469.947,2019-11-15T16:44:22Z
2019-11-15T14:46:58Z,42.805,6.029,13.3018,4.60037,2469.984,2019-11-15T16:47:25Z
2019-11-15T14:50:01Z,42.805,6.029,13.3021,4.60082,2469.96,2019-11-15T16:50:29Z
2019-11-15T14:53:04Z,42.805,6.029,13.3027,4.60033,2469.984,2019-11-15T16:53:32Z
2019-11-15T14:56:07Z,42.805,6.029,13.3018,4.60037,2469.984,2019-11-15T16:56:35Z
2019-11-15T14:59:11Z,42.805,6.029,13.3006,4.60021,2469.947,2019-11-15T16:59:38Z
2019-11-15T15:02:14Z,42.805,6.029,13.3036,4.60039,2469.96,2019-11-15T17:02:42Z